Regional Weather Roundup
Issued by NWS Spokane, WA

Home | Current Version | Previous Version | Text Only | Print | Product List | Glossary On
Versions: 1 2 3 4 5 6 7 8 9 10 11 12 13 14 15 16 17 18 19 20 21 22 23 24 25 26 27 28 29 30 31 32 33 34 35 36 37 38 39 40 41 42 43 44 45 46 47 48 49 50
000
NZUS01 KOTX 301800
RWROTX
EASTERN WASHINGTON/NORTHERN IDAHO ROUNDUP
NATIONAL WEATHER SERVICE, SPOKANE WA
1000 AM PST FRI JAN 30 2015

Note: "fair" indicated few or no clouds below 12,000 feet with no
significant weather and/or obstructions to visibility.

...NORTHEAST WASHINGTON AND NORTHERN IDAHO PANHANDLE...

CITY           SKY/WX    TMP DP  RH WIND       PRES   REMARKS
SPOKANE INTL   FOG       31  28  89 E3        30.37S VSB 1/4
SPOKANE DOWNTO CLOUDY    31  28  89 CALM      30.40S
COEUR D ALENE  CLOUDY    30  28  93 NE8       30.37R WCI  23
DEER PARK      CLOUDY    28  27  96 E6        30.39S FOG     WCI  22

...SOUTHEAST WASHINGTON AND SOUTHERN IDAHO PANHANDLE...

CITY           SKY/WX    TMP DP  RH WIND       PRES   REMARKS
WALLA WALLA    CLOUDY    36  32  85 SE6       30.43R
PULLMAN/MOSCOW CLOUDY    32  31  96 E3        30.37R FOG
LOWELL           N/A     36  30  79 CALM      30.41F

...COLUMBIA BASIN...

CITY           SKY/WX    TMP DP  RH WIND       PRES   REMARKS
EPHRATA        CLOUDY    35  34  96 SE6       30.41S FOG
MOSES LAKE     CLOUDY    35  33  92 SE6       30.43S FOG
TRI CITIES     CLOUDY    38  37  97 NW3       30.47R
HERMISTON      CLOUDY    37  35  92 NW3       30.45R FOG
PENDLETON      CLOUDY    34  32  92 S5        30.41S FOG     WCI  30

...EAST SLOPES CASCADES...

CITY           SKY/WX    TMP DP  RH WIND       PRES   REMARKS
THE DALLES     CLOUDY    40  36  86 E5        30.47R
YAKIMA         CLOUDY    37  33  85 SW5       30.44R
ELLENSBURG     CLOUDY    35  32  88 NW5       30.39S
WENATCHEE      CLOUDY    34  29  82 NW8       30.42S WCI  27
OMAK           LGT SNOW  34  30  85 CALM      30.42S FOG

...SOUTHERN BRITISH COLUMBIA...

CITY           SKY/WX    TMP DP  RH WIND       PRES   REMARKS

...WESTERN MONTANA...

CITY           SKY/WX    TMP DP  RH WIND       PRES   REMARKS
MISSOULA       SUNNY     24  22  91 CALM      30.37S

...NEIGHBORING CITIES...

CITY           SKY/WX    TMP DP  RH WIND       PRES   REMARKS
SEATTLE        FOG       38  37  97 CALM      30.32S VSB 3/4



USA.gov is the U.S. government's official web portal to all federal, state and local government web resources and services.